Tracking 18844 objects as of 21-Nov-2017
HD Live streaming from Space Station
objects crossing your sky now

FENGYUN 1C DEB

Track FENGYUN 1C DEB now!
10-day predictions


NORAD ID: 36700
Int'l Code: 1999-025DZW
Perigee: 845.8 km
Apogee: 1,077.0 km
Inclination: 99.9 °
Period: 104.1 minutes
Semi major axis: 7332 km
RCS: 0.0103 m2 (small)
Launch date: May 10, 1999
Source: People's Republic of China (PRC)
Launch site: Taiyaun Space Center, China (TSC)

Note: This is SATELLITE DEBRIS
aabbcc
Your satellite tracking list
Your tracking list is empty




NASA's NSSDC Master Catalog

Two Line Element Set (TLE):
1 36700U 99025DZW 17323.34450626  .00000619  00000-0  55932-3 0  9990
2 36700  99.8872 156.8095 0157669 305.9739  52.6878 13.82711435485700
Source of the keplerian elements: AFSPC